Лейк-Элсинор

США     33°37′41″N   117°22′12″W
темп.,
°C
ветер,
м/с
пор.,
м/с
влажн.,
%
обл.,
%
осадки,
мм/ч
давл.,
гПа
погр.,
м
16 октября, сб
сб1623:00+16ссв22160 0.0 101811
02:00+15ссв22160 0.0 101711
05:00+14с11160 0.0 101611
08:00+17ссв11200 0.0 101711
11:00+25св23110 0.0 1016635
14:00+29св2380 0.0 10131809
17:00+28сз2280 0.0 10121158
20:00+19юз11190 0.0 101411
17 октября, вс
вс1723:00+17ю112498 0.0 101511
02:00+15ююз1129100 0.0 101511
05:00+14юв1133100 0.0 101411
08:00+17ю11335 0.0 101511
11:00+22ююз12170 0.0 10151040
14:00+25юз44140 0.0 10132016
17:00+22юз44200 0.0 1013966
20:00+15ю22440 0.0 101516
18 октября, пн
пн1823:00+13ююз22580 0.0 101611
02:00+11ю22685 0.0 101510
05:00+10ю22801 0.0 101510
08:00+11ю118220 0.0 101692
11:00+16ююз345769 0.0 10151322
14:00+17зюз225081 0.0 10131375
17:00+17юз3349100 0.0 1012893
20:00+13ююз226962 0.0 1014226
19 октября, вт
вт1923:00+10ю11856 0.0 101616
02:00+9ююв22920 0.0 101611
05:00+8юв11950 0.0 101510
08:00+9ю11850 0.0 101761
11:00+16зсз00473 0.0 1016650
14:00+20ю11290 0.0 10141094
17:00+21ююв223217 0.0 1013831
20:00+14ююз1162100 0.0 101616
20 октября, ср
ср2023:00+12ююв017243 0.0 101710
02:00+11с1175100 0.0 101710
05:00+11ссв117797 0.0 101710
08:00+14ссз11655 0.0 101827
11:00+20всв113644 0.0 1018527
14:00+25сз112256 0.0 10161256
17:00+23ссз122769 0.0 1016563
20:00+17юз1152100 0.0 101712